FFT2400 KIAH-KATL

Flight info

Callsign FFT2400
Flight time N/A
Altitude 37000
Route MMUGS4 LCH Q24 PAYTN SHYRE HOBTT2
Aircraft A320/M-SDE3FGHIRWY/LB1

Departure

Time 2025-09-05 22:02
Airport George Bush Intercontinental Airport (KIAH)

Arrival

Time N/A
Airport Hartsfield Jackson Atlanta International Airport (KATL)
Time Latitude Longitude Altitude Speed Heading
2025-09-05 21:26 29.98801 -95.33710 107 ft 0 kts 180°
2025-09-05 21:47 29.98880 -95.33706 106 ft 3 kts 197°
2025-09-05 21:47 29.98898 -95.33698 106 ft 3 kts 211°
2025-09-05 21:48 29.98920 -95.33653 107 ft 2 kts 270°
2025-09-05 21:53 29.99015 -95.33719 107 ft 10 kts 10°
2025-09-05 21:53 29.99091 -95.33779 107 ft 9 kts 259°
2025-09-05 21:54 29.99089 -95.34050 107 ft 20 kts 269°
2025-09-05 21:54 29.99084 -95.34394 107 ft 23 kts 271°
2025-09-05 21:55 29.99087 -95.34927 107 ft 20 kts 274°
2025-09-05 21:56 29.99090 -95.35434 107 ft 14 kts 266°
2025-09-05 21:56 29.98918 -95.35503 107 ft 16 kts 216°
2025-09-05 21:57 29.98879 -95.35568 107 ft 0 kts 241°
2025-09-05 21:57 29.98826 -95.35681 107 ft 2 kts 242°
2025-09-05 21:58 29.98805 -95.35727 108 ft 8 kts 242°
2025-09-05 21:59 29.98759 -95.35769 109 ft 2 kts 147°
2025-09-05 22:00 29.98638 -95.35695 108 ft 49 kts 152°
2025-09-05 22:00 29.98125 -95.35381 107 ft 115 kts 152°
2025-09-05 22:00 29.96253 -95.34240 727 ft 166 kts 154°
2025-09-05 22:01 29.93793 -95.31172 2491 ft 201 kts 128°
2025-09-05 22:01 29.92897 -95.29805 2849 ft 226 kts 129°
2025-09-05 22:02 29.90772 -95.26675 3803 ft 265 kts 129°
2025-09-05 22:02 29.88452 -95.23348 4073 ft 271 kts 129°
2025-09-05 22:03 29.86217 -95.19791 4960 ft 271 kts 127°
2025-09-05 22:04 29.83014 -95.14500 5015 ft 271 kts 121°
2025-09-05 22:04 29.82279 -95.10252 5864 ft 279 kts 93°
2025-09-05 22:05 29.82105 -95.05817 7753 ft 277 kts 94°
2025-09-05 22:05 29.81897 -95.01370 9552 ft 279 kts 94°
2025-09-05 22:06 29.82125 -94.96863 10865 ft 299 kts 76°
2025-09-05 22:06 29.82240 -94.96405 10911 ft 304 kts 75°